LVFWZ SBCG-SGAS

Flight info

Callsign LVFWZ
Flight time N/A
Altitude 34000
Route POTLA DCT AKSUL UM544 PADOT
Aircraft B738/M-SDE2E3FGHIRWXY/LB1

Departure

Time 2026-04-20 23:16
Airport Campo Grande Airport (SBCG)

Arrival

Time N/A
Airport Silvio Pettirossi International Airport (SGAS)
Time Latitude Longitude Altitude Speed Heading
2026-04-20 22:49 -20.45803 -54.66931 1841 ft 0 kts 314°
2026-04-20 23:07 -20.45793 -54.66929 1841 ft 3 kts 38°
2026-04-20 23:07 -20.45795 -54.66896 1841 ft 5 kts 120°
2026-04-20 23:07 -20.45824 -54.66860 1841 ft 7 kts 121°
2026-04-20 23:07 -20.45835 -54.66798 1841 ft 9 kts 89°
2026-04-20 23:08 -20.45858 -54.66728 1841 ft 11 kts 142°
2026-04-20 23:08 -20.45887 -54.66708 1841 ft 0 kts 150°
2026-04-20 23:08 -20.45892 -54.66705 1841 ft 4 kts 153°
2026-04-20 23:08 -20.45945 -54.66685 1841 ft 9 kts 172°
2026-04-20 23:09 -20.46006 -54.66700 1841 ft 8 kts 212°
2026-04-20 23:09 -20.46053 -54.66739 1841 ft 8 kts 222°
2026-04-20 23:09 -20.46093 -54.66778 1841 ft 7 kts 223°
2026-04-20 23:09 -20.46129 -54.66813 1841 ft 6 kts 223°
2026-04-20 23:10 -20.46162 -54.66845 1841 ft 6 kts 222°
2026-04-20 23:10 -20.46191 -54.66874 1841 ft 5 kts 222°
2026-04-20 23:10 -20.46243 -54.66922 1841 ft 14 kts 221°
2026-04-20 23:10 -20.46331 -54.67008 1841 ft 17 kts 223°
2026-04-20 23:11 -20.46424 -54.67098 1841 ft 18 kts 222°
2026-04-20 23:11 -20.46517 -54.67189 1841 ft 18 kts 223°
2026-04-20 23:11 -20.46614 -54.67281 1841 ft 18 kts 221°
2026-04-20 23:11 -20.46713 -54.67370 1841 ft 18 kts 220°
2026-04-20 23:12 -20.46806 -54.67467 1841 ft 18 kts 224°
2026-04-20 23:12 -20.46904 -54.67561 1841 ft 19 kts 221°
2026-04-20 23:12 -20.47006 -54.67657 1841 ft 19 kts 221°
2026-04-20 23:12 -20.47107 -54.67754 1841 ft 19 kts 223°
2026-04-20 23:13 -20.47140 -54.67787 1841 ft 19 kts 223°
2026-04-20 23:13 -20.47312 -54.67954 1841 ft 20 kts 222°
2026-04-20 23:13 -20.47416 -54.68055 1841 ft 20 kts 222°
2026-04-20 23:13 -20.47523 -54.68158 1841 ft 20 kts 222°
2026-04-20 23:14 -20.47626 -54.68259 1841 ft 18 kts 221°
2026-04-20 23:14 -20.47730 -54.68337 1841 ft 17 kts 183°
2026-04-20 23:14 -20.47818 -54.68274 1841 ft 9 kts 130°
2026-04-20 23:14 -20.47831 -54.68209 1841 ft 9 kts 63°
2026-04-20 23:15 -20.47778 -54.68147 1841 ft 17 kts 43°
2026-04-20 23:15 -20.47583 -54.67956 1841 ft 68 kts 43°
2026-04-20 23:15 -20.47053 -54.67446 1841 ft 132 kts 41°
2026-04-20 23:15 -20.46235 -54.66650 1907 ft 177 kts 43°
2026-04-20 23:16 -20.45337 -54.65772 2605 ft 179 kts 43°
2026-04-20 23:16 -20.44393 -54.64886 3350 ft 190 kts 39°
2026-04-20 23:16 -20.43375 -54.63961 4000 ft 198 kts 40°
2026-04-20 23:16 -20.42295 -54.62953 4526 ft 214 kts 41°
2026-04-20 23:17 -20.41141 -54.61854 5027 ft 235 kts 42°
2026-04-20 23:17 -20.39892 -54.60663 5664 ft 249 kts 42°
2026-04-20 23:17 -20.38642 -54.59300 6279 ft 264 kts 57°
2026-04-20 23:17 -20.38023 -54.57415 6828 ft 274 kts 85°
2026-04-20 23:18 -20.38301 -54.55408 6978 ft 280 kts 110°
2026-04-20 23:18 -20.39210 -54.53562 6997 ft 280 kts 121°
2026-04-20 23:18 -20.40133 -54.51749 6975 ft 275 kts 107°
2026-04-20 23:18 -20.40487 -54.49763 6976 ft 273 kts 92°
2026-04-20 23:19 -20.40541 -54.47726 6969 ft 273 kts 89°
2026-04-20 23:19 -20.40707 -54.45700 6964 ft 274 kts 103°
2026-04-20 23:19 -20.41382 -54.43785 7000 ft 278 kts 114°
2026-04-20 23:19 -20.42257 -54.41938 7004 ft 278 kts 115°
2026-04-20 23:20 -20.43135 -54.40068 6996 ft 277 kts 114°
2026-04-20 23:20 -20.43954 -54.38224 7002 ft 278 kts 115°
2026-04-20 23:20 -20.44989 -54.36437 6997 ft 281 kts 129°
2026-04-20 23:20 -20.46569 -54.35148 7310 ft 300 kts 152°
2026-04-20 23:21 -20.48485 -54.34259 8515 ft 292 kts 154°
2026-04-20 23:21 -20.50378 -54.33418 9414 ft 294 kts 154°
2026-04-20 23:21 -20.52247 -54.32561 10232 ft 299 kts 153°
2026-04-20 23:21 -20.54207 -54.31633 10879 ft 310 kts 153°
2026-04-20 23:22 -20.56204 -54.30671 11603 ft 317 kts 154°
2026-04-20 23:22 -20.58220 -54.29697 12376 ft 321 kts 154°
2026-04-20 23:22 -20.60290 -54.28695 13146 ft 325 kts 154°
2026-04-20 23:22 -20.62380 -54.27682 13881 ft 330 kts 154°
2026-04-20 23:23 -20.64495 -54.26659 14557 ft 336 kts 155°
2026-04-20 23:23 -20.66651 -54.25616 15252 ft 340 kts 155°
2026-04-20 23:23 -20.68810 -54.24572 15927 ft 345 kts 155°
2026-04-20 23:23 -20.71031 -54.23497 16604 ft 349 kts 156°
2026-04-20 23:24 -20.73303 -54.22397 17270 ft 354 kts 156°
2026-04-20 23:24 -20.75562 -54.21302 17968 ft 356 kts 156°
2026-04-20 23:24 -20.77838 -54.20198 18608 ft 360 kts 156°
2026-04-20 23:24 -20.80129 -54.19087 19277 ft 362 kts 157°
2026-04-20 23:25 -20.82471 -54.17998 19958 ft 363 kts 160°
2026-04-20 23:25 -20.84882 -54.17149 20542 ft 365 kts 169°
2026-04-20 23:25 -20.87432 -54.16777 21158 ft 364 kts 181°
2026-04-20 23:25 -20.89947 -54.16946 21774 ft 363 kts 192°
2026-04-20 23:26 -20.92417 -54.17594 22389 ft 361 kts 201°
2026-04-20 23:26 -20.94766 -54.18576 22962 ft 361 kts 207°
2026-04-20 23:26 -20.96997 -54.19849 23465 ft 363 kts 216°
2026-04-20 23:26 -20.99013 -54.21504 24014 ft 363 kts 223°
2026-04-20 23:27 -21.00865 -54.23328 24475 ft 366 kts 226°
2026-04-20 23:27 -21.02715 -54.25254 25031 ft 367 kts 226°
2026-04-20 23:27 -21.04546 -54.27173 25478 ft 370 kts 226°
2026-04-20 23:27 -21.06412 -54.29118 25968 ft 372 kts 225°
2026-04-20 23:28 -21.08291 -54.31062 26425 ft 375 kts 225°
2026-04-20 23:28 -21.10189 -54.33010 26842 ft 378 kts 225°
2026-04-20 23:28 -21.12211 -54.35076 27392 ft 378 kts 225°
2026-04-20 23:28 -21.14120 -54.37020 27745 ft 382 kts 224°
2026-04-20 23:29 -21.16064 -54.38997 28209 ft 383 kts 224°
2026-04-20 23:29 -21.18015 -54.40979 28632 ft 385 kts 224°
2026-04-20 23:29 -21.19975 -54.42971 28977 ft 389 kts 224°
2026-04-20 23:29 -21.21949 -54.44975 29372 ft 392 kts 224°
2026-04-20 23:30 -21.23945 -54.47004 29736 ft 395 kts 224°
2026-04-20 23:30 -21.25962 -54.49054 30139 ft 396 kts 224°
2026-04-20 23:30 -21.27960 -54.51086 30521 ft 398 kts 224°
2026-04-20 23:30 -21.29990 -54.53151 30941 ft 399 kts 224°
2026-04-20 23:31 -21.32014 -54.55213 31343 ft 400 kts 224°
2026-04-20 23:31 -21.34016 -54.57254 31682 ft 402 kts 224°
2026-04-20 23:31 -21.36054 -54.59333 31986 ft 405 kts 224°
2026-04-20 23:31 -21.38100 -54.61420 32373 ft 406 kts 224°
2026-04-20 23:32 -21.40181 -54.63543 32798 ft 406 kts 224°
2026-04-20 23:32 -21.42216 -54.65620 33303 ft 404 kts 224°
2026-04-20 23:32 -21.44289 -54.67735 33553 ft 409 kts 225°
2026-04-20 23:32 -21.46385 -54.69874 33892 ft 411 kts 224°
2026-04-20 23:33 -21.50537 -54.74117 33957 ft 411 kts 225°
2026-04-20 23:33 -21.54696 -54.78370 33960 ft 410 kts 225°
2026-04-20 23:34 -21.58856 -54.82629 33966 ft 410 kts 225°
2026-04-20 23:34 -21.62995 -54.86873 33966 ft 413 kts 225°
2026-04-20 23:35 -21.69230 -54.93267 33973 ft 411 kts 225°
2026-04-20 23:36 -21.73390 -54.97535 33971 ft 412 kts 225°
2026-04-20 23:36 -21.77518 -55.01776 33973 ft 410 kts 225°
2026-04-20 23:37 -21.81683 -55.06062 33976 ft 410 kts 225°
2026-04-20 23:37 -21.85818 -55.10319 33977 ft 411 kts 225°
2026-04-20 23:38 -21.89983 -55.14606 33982 ft 410 kts 225°
2026-04-20 23:38 -21.94125 -55.18876 33979 ft 410 kts 225°
2026-04-20 23:39 -21.98272 -55.23160 33977 ft 411 kts 225°
2026-04-20 23:39 -22.02402 -55.27426 33979 ft 411 kts 225°
2026-04-20 23:40 -22.06567 -55.31731 33982 ft 411 kts 225°
2026-04-20 23:40 -22.10708 -55.36016 33990 ft 411 kts 225°
2026-04-20 23:41 -22.14902 -55.40359 33992 ft 410 kts 225°
2026-04-20 23:41 -22.19066 -55.44675 33998 ft 411 kts 225°
2026-04-20 23:42 -22.23203 -55.48965 34001 ft 409 kts 225°
2026-04-20 23:42 -22.27329 -55.53249 34002 ft 411 kts 225°
2026-04-20 23:43 -22.31481 -55.57564 34005 ft 411 kts 225°
2026-04-20 23:43 -22.35644 -55.61892 34006 ft 411 kts 225°
2026-04-20 23:44 -22.39812 -55.66232 34009 ft 410 kts 225°
2026-04-20 23:44 -22.43923 -55.70514 34014 ft 409 kts 225°
2026-04-20 23:45 -22.48190 -55.74636 34004 ft 412 kts 219°
2026-04-20 23:45 -22.53071 -55.78049 33993 ft 415 kts 212°
2026-04-20 23:46 -22.58107 -55.81112 33982 ft 414 kts 212°
2026-04-20 23:46 -22.63178 -55.84173 33975 ft 414 kts 212°
2026-04-20 23:47 -22.68231 -55.87270 33966 ft 416 kts 212°
2026-04-20 23:47 -22.73280 -55.90396 33959 ft 416 kts 212°
2026-04-20 23:48 -22.78298 -55.93514 33957 ft 414 kts 212°
2026-04-20 23:48 -22.83340 -55.96655 33948 ft 416 kts 212°
2026-04-20 23:49 -22.88366 -55.99791 33945 ft 417 kts 212°
2026-04-20 23:49 -22.93463 -56.02974 33935 ft 415 kts 212°
2026-04-20 23:50 -22.98479 -56.06111 33946 ft 416 kts 212°
2026-04-20 23:50 -23.03525 -56.09270 33950 ft 417 kts 212°
2026-04-20 23:51 -23.08553 -56.12421 33950 ft 418 kts 212°
2026-04-20 23:51 -23.13631 -56.15637 33944 ft 415 kts 212°
2026-04-20 23:52 -23.18659 -56.18840 33938 ft 417 kts 212°
2026-04-20 23:52 -23.23718 -56.22064 33927 ft 418 kts 213°
2026-04-20 23:53 -23.28777 -56.25288 33925 ft 417 kts 212°
2026-04-20 23:53 -23.33775 -56.28475 33920 ft 417 kts 213°
2026-04-20 23:54 -23.38808 -56.31686 33913 ft 417 kts 213°
2026-04-20 23:54 -23.43827 -56.34889 33910 ft 417 kts 212°
2026-04-20 23:55 -23.48850 -56.38100 33909 ft 417 kts 213°
2026-04-20 23:55 -23.53872 -56.41315 33906 ft 418 kts 212°
2026-04-20 23:56 -23.58947 -56.44565 33899 ft 419 kts 212°
2026-04-20 23:56 -23.63975 -56.47783 33893 ft 417 kts 213°
2026-04-20 23:57 -23.68993 -56.51001 33891 ft 420 kts 213°
2026-04-20 23:57 -23.74066 -56.54257 33887 ft 421 kts 212°
2026-04-20 23:58 -23.79116 -56.57504 33884 ft 421 kts 213°
2026-04-20 23:58 -23.84209 -56.60783 33883 ft 422 kts 212°
2026-04-20 23:59 -23.89279 -56.64046 33883 ft 424 kts 212°
2026-04-20 23:59 -23.94381 -56.67332 33880 ft 422 kts 213°
2026-04-21 00:00 -23.99479 -56.70625 33877 ft 423 kts 213°
2026-04-21 00:00 -24.04546 -56.73897 33876 ft 421 kts 213°
2026-04-21 00:01 -24.09627 -56.77186 33882 ft 425 kts 213°
2026-04-21 00:01 -24.14735 -56.80492 33882 ft 424 kts 213°
2026-04-21 00:02 -24.19828 -56.83785 33884 ft 421 kts 213°
2026-04-21 00:02 -24.24925 -56.87085 33902 ft 423 kts 213°
2026-04-21 00:03 -24.30010 -56.90384 33911 ft 421 kts 213°
2026-04-21 00:03 -24.35118 -56.93595 33919 ft 424 kts 210°
2026-04-21 00:04 -24.40813 -56.95518 33918 ft 434 kts 189°
2026-04-21 00:04 -24.46878 -56.95140 33926 ft 439 kts 173°
2026-04-21 00:05 -24.52726 -56.92938 33921 ft 451 kts 153°
2026-04-21 00:05 -24.55320 -56.90928 33920 ft 456 kts 142°
2026-04-21 00:05 -24.57588 -56.88491 33929 ft 459 kts 134°
2026-04-21 00:06 -24.61206 -56.82645 33927 ft 464 kts 118°
2026-04-21 00:06 -24.63769 -56.76124 33928 ft 465 kts 113°
2026-04-21 00:07 -24.66138 -56.69511 33912 ft 466 kts 113°
2026-04-21 00:07 -24.68537 -56.62865 33917 ft 465 kts 114°
2026-04-21 00:08 -24.70987 -56.56206 33918 ft 466 kts 114°
2026-04-21 00:08 -24.73419 -56.49668 33920 ft 464 kts 114°
2026-04-21 00:09 -24.75887 -56.43068 33921 ft 465 kts 114°
2026-04-21 00:09 -24.78368 -56.36443 33926 ft 465 kts 114°
2026-04-21 00:10 -24.80844 -56.29818 33930 ft 466 kts 114°
2026-04-21 00:10 -24.83299 -56.23241 33941 ft 464 kts 113°
2026-04-21 00:11 -24.85761 -56.16632 33947 ft 467 kts 114°
2026-04-21 00:11 -24.88222 -56.10014 33952 ft 466 kts 114°
2026-04-21 00:12 -24.90676 -56.03408 33963 ft 467 kts 114°
2026-04-21 00:12 -24.93130 -55.96767 33967 ft 467 kts 114°
2026-04-21 00:13 -24.95586 -55.90149 33962 ft 466 kts 115°
2026-04-21 00:13 -24.98830 -55.83978 33958 ft 460 kts 134°
2026-04-21 00:13 -25.01150 -55.81570 33958 ft 458 kts 146°
2026-04-21 00:14 -25.03830 -55.79648 33961 ft 453 kts 154°
2026-04-21 00:14 -25.09648 -55.76961 33953 ft 444 kts 171°
2026-04-21 00:14 -25.12737 -55.76517 33961 ft 439 kts 183°
2026-04-21 00:15 -25.15799 -55.76685 33960 ft 436 kts 191°
2026-04-21 00:15 -25.21671 -55.78222 33943 ft 425 kts 206°
2026-04-21 00:15 -25.24284 -55.79686 33635 ft 414 kts 216°
2026-04-21 00:16 -25.26564 -55.81568 33171 ft 405 kts 225°
2026-04-21 00:16 -25.28541 -55.83740 32817 ft 399 kts 231°
2026-04-21 00:16 -25.30344 -55.86144 32372 ft 412 kts 236°
2026-04-21 00:16 -25.31846 -55.88876 31824 ft 415 kts 246°
2026-04-21 00:17 -25.32875 -55.91867 31266 ft 410 kts 255°
2026-04-21 00:17 -25.33471 -55.94917 30718 ft 407 kts 262°
2026-04-21 00:17 -25.33774 -55.98025 30156 ft 404 kts 267°
2026-04-21 00:17 -25.33692 -56.01104 29610 ft 401 kts 276°
2026-04-21 00:18 -25.33136 -56.04113 29065 ft 400 kts 285°
2026-04-21 00:18 -25.32187 -56.07035 28522 ft 398 kts 291°
2026-04-21 00:18 -25.30990 -56.09776 27983 ft 398 kts 297°
2026-04-21 00:18 -25.29418 -56.12345 27430 ft 399 kts 306°
2026-04-21 00:19 -25.27539 -56.14588 26885 ft 399 kts 311°
2026-04-21 00:19 -25.25485 -56.16705 26319 ft 399 kts 316°
2026-04-21 00:19 -25.23192 -56.18502 25766 ft 401 kts 326°
2026-04-21 00:19 -25.20688 -56.19926 25215 ft 401 kts 330°
2026-04-21 00:20 -25.18190 -56.21242 24656 ft 397 kts 327°
2026-04-21 00:20 -25.15957 -56.23015 24122 ft 385 kts 311°
2026-04-21 00:20 -25.14318 -56.25290 23603 ft 376 kts 297°
2026-04-21 00:20 -25.13204 -56.27877 23095 ft 368 kts 288°
2026-04-21 00:21 -25.12463 -56.30534 22597 ft 364 kts 282°
2026-04-21 00:21 -25.11952 -56.33260 22097 ft 359 kts 277°
2026-04-21 00:21 -25.11681 -56.35963 21597 ft 356 kts 273°
2026-04-21 00:21 -25.11631 -56.38678 21092 ft 354 kts 269°
2026-04-21 00:22 -25.11745 -56.41396 20591 ft 351 kts 266°
2026-04-21 00:22 -25.11962 -56.44044 20096 ft 349 kts 265°
2026-04-21 00:22 -25.12243 -56.46708 19609 ft 346 kts 265°